Location: Sungai Bunut
(2.6333°N, 113.7333°E)
Time: 00:55:36
(UTC+00:00)

Vanguard 1 - Pass Details

Date: 03 December 2023
Orbit: 653 x 3825 km, 34.3° (Epoch: 03 March)

Event Time Altitude Azimuth Distance (km) Brightness Sun altitude
Rises 11:52:29 0° 293° (WNW) 6,223 14.8 -23.6°
Reaches altitude 10° 11:57:44 10° 307° (NW) 5,700 14.3 -24.8°
Maximum altitude 12:11:36 24° 355° (N) 5,508 13.6 -28.0°
Enters shadow 12:20:58 19° 24° (NNE) 6,155 13.7 -30.1°
